Regional Weather Roundup
Issued by NWS

Home | Current Version | Previous Version | Graphics & Text | Print | Product List | Glossary On
Versions: 1 2 3 4 5 6 7 8 9 10 11 12 13 14 15 16 17 18 19 20 21 22 23 24 25 26 27 28 29 30 31 32 33 34 35 36 37 38 39 40 41 42 43 44 45 46 47 48 49 50
000
ASUS44 KMEG 261310
RWRTN
TENNESSEE HOURLY STATE WEATHER ROUNDUP
NATIONAL WEATHER SERVICE MEMPHIS TN
800 AM CDT SUN MAR 26 2017

TNZ002-004-019-021-049-052-054-088>092-261400-
WEST TENNESSEE

CITY           SKY/WX    TMP DP  RH WIND       PRES   REMARKS
MEMPHIS INTL   PTSUNNY   59  56  89 S6        29.96R
NWS MEMPHIS      N/A     59 N/A N/A MISG        N/A
JACKSON        CLOUDY    60  58  92 S6        29.96S
DYERSBURG      CLOUDY    56  56 100 CALM      29.97R
SOMERVILLE     CLOUDY    61  57  88 S7        29.95S
BOLIVAR        CLOUDY    61  57  88 S7        29.96S
PARIS          CLOUDY    55  55 100 S8        29.96R
HUNTINGDON     CLOUDY    59  57  94 S7        29.96R
SAVANNAH       CLOUDY    59  57  94 S8        29.98R
$$

TNZ008-025-027-028-033-062-065-066-261400-
NORTH MIDDLE TENNESSEE

CITY           SKY/WX    TMP DP  RH WIND       PRES   REMARKS
NASHVILLE      CLOUDY    59  57  93 S8        30.00R
PORTLAND       CLOUDY    57  57 100 S10G16    29.99S
CLARKSVILLE    CLOUDY    59  54  83 S9        29.97R
SMYRNA         CLOUDY    59  57  94 S7        30.03R
COOKEVILLE     CLOUDY    61  55  82 S10       30.01R
GALLATIN       CLOUDY    59  57  94 S7        30.03R
CROSSVILLE     CLOUDY    57  53  86 VRB7      30.06R
$$

TNZ061-075-076-078-094-096-097-261400-
SOUTH MIDDLE TENNESSEE

CITY           SKY/WX    TMP DP  RH WIND       PRES   REMARKS
FAYETTEVILLE   CLOUDY    59  57  94 S8        30.03R
TULLAHOMA      CLOUDY    57  55  94 S8        30.04R
WINCHESTER     PTSUNNY   59  55  88 S7        30.04R
MCMINNVILLE    PTSUNNY   61  55  82 S7        30.03R
COLUMBIA       PTSUNNY  N/A N/A N/A S8        29.99R
SHELBYVILLE    CLOUDY   N/A N/A N/A MISG      30.03R
$$

TNZ017-018-042-046-047-261400-
NORTHEAST TENNESSEE

CITY           SKY/WX    TMP DP  RH WIND       PRES   REMARKS
TRI CITIES     LGT RAIN  58  54  86 CALM      30.13R FOG
ELIZABETHTON   LGT RAIN  57  54  88 NW5       30.12R
$$

TNZ012-013-036-069-073-074-261400-
CENTRAL EAST TENNESSEE

CITY           SKY/WX    TMP DP  RH WIND       PRES   REMARKS
KNOXVILLE      PTSUNNY   60  56  86 CALM      30.07S
OAK RIDGE      CLOUDY    59  57  93 CALM      30.08S
DOWNTOWN KNOXV PTSUNNY   59  59 100 CALM      30.08S
GATLINBURG     MOSUNNY   57  55  94 CALM      30.08S
MORRISTOWN     PTSUNNY   57  55  94 SE6       30.08S
JACKSBORO      PTSUNNY   61  55  82 S9        30.09S
$$

TNZ083-085-099-261400-
SOUTHEAST TENNESSEE

CITY           SKY/WX    TMP DP  RH WIND       PRES   REMARKS
CHATTANOOGA    CLOUDY    61  57  87 SE6       30.07R
$$

SKY/WX REPORTED AS FAIR MEANS FEW OR NO CLOUDS BELOW
12 THOUSAND FEET.




USA.gov is the U.S. government's official web portal to all federal, state and local government web resources and services.